Location: McFarlands Corners
(41.4117°N, 81.3382°W)
Time: 10:18:26
(UTC+00:00)

Vanguard 1 Rocket - Pass Details

Date: 20 February 2026
Orbit: 653 x 4214 km, 34.3° (Epoch: 8 March)

Event Time Altitude Azimuth Distance (km) Brightness Sun altitude
Rises 00:50:16 0° 281° (W) 6,551 13.3 -20.5°
Reaches altitude 10° 00:54:38 10° 272° (W) 5,968 12.7 -21.4°
Maximum altitude 01:11:44 35° 217° (SW) 5,309 11.4 -24.5°
Drops below altitude 10° 01:33:09 10° 162° (SSE) 7,297 11.7 -28.5°
Sets 01:39:29 0° 154° (SSE) 8,100 11.9 -29.7°
